Location: Agadir Irigdalene
(31.2522°N, 8.7797°W)
Time: 16:03:45
(UTC+00:00)

SMAP - Pass Details

Date: 01 December 2020
Orbit: 681 x 683 km, 98.1° (Epoch: 26 January)

Event Time Altitude Azimuth Distance (km) Brightness Sun altitude
Rises 18:33:42 0° 182° (S) 3,028 6.7 -13.1°
Reaches altitude 10° 18:36:01 10° 188° (S) 2,117 5.9 -13.5°
Maximum altitude 18:40:25 44° 260° (W) 943 4.3 -14.4°
Drops below altitude 10° 18:44:52 10° 333° (NNW) 2,130 5.7 -15.3°
Sets 18:47:13 0° 340° (NNW) 3,049 6.5 -15.8°
